This is the latest recevied weather packets stored in our database for station/object OK2ILA-1. If no packets are shown the sender has not sent any weather packets the latest 10 day(s).
| Time | Temp. | Humidity | Pressure | Rain* | Wind** | Luminosity | Snow |
|---|---|---|---|---|---|---|---|
| 1777921319 | 18.33° C | 100% | 1014.3 hPa | 0 mm | - | - | - |
| 1777919877 | 18.89° C | 100% | 1014.1 hPa | 0 mm | - | - | - |
| 1777918436 | 19.44° C | 100% | 1013.9 hPa | 0 mm | - | - | - |
| 1777917715 | 20° C | 100% | 1013.9 hPa | 0 mm | - | - | - |
| 1777916274 | 21.11° C | 100% | 1013.8 hPa | 0 mm | - | - | - |
| 1777914112 | 22.22° C | 100% | 1013.7 hPa | 0 mm | - | - | - |
| 1777912670 | 23.33° C | 100% | 1013.8 hPa | 0 mm | - | - | - |
| 1777911950 | 23.33° C | 100% | 1013.7 hPa | 0 mm | - | - | - |
| 1777911229 | 23.89° C | 100% | 1013.8 hPa | 0 mm | - | - | - |
| 1777909067 | 23.89° C | 100% | 1013.9 hPa | 0 mm | - | - | - |
| 1777908346 | 23.89° C | 100% | 1013.9 hPa | 0 mm | - | - | - |
| 1777907626 | 23.89° C | 100% | 1014 hPa | 0 mm | - | - | - |
| 1777906905 | 23.89° C | 100% | 1014.1 hPa | 0 mm | - | - | - |
| 1777905464 | 24.44° C | 100% | 1014.2 hPa | 0 mm | - | - | - |
| 1777904022 | 23.89° C | 100% | 1014.3 hPa | 0 mm | - | - | - |
| 1777901254 | 24.44° C | 100% | 1014.6 hPa | 0 mm | - | - | - |
| 1777899812 | 25° C | 100% | 1014.9 hPa | 0 mm | - | - | - |
| 1777899092 | 25° C | 100% | 1014.9 hPa | 0 mm | - | - | - |
| 1777898371 | 24.44° C | 100% | 1014.9 hPa | 0 mm | - | - | - |
| 1777897650 | 25° C | 100% | 1015 hPa | 0 mm | - | - | - |
| 1777896929 | 25° C | 100% | 1015 hPa | 0 mm | - | - | - |
| 1777896209 | 25° C | 100% | 1015.1 hPa | 0 mm | - | - | - |
| 1777894047 | 23.89° C | 100% | 1015.5 hPa | 0 mm | - | - | - |
| 1777893326 | 23.89° C | 100% | 1015.6 hPa | 0 mm | - | - | - |
| 1777892605 | 23.89° C | 100% | 1015.7 hPa | 0 mm | - | - | - |
* Rain latest hour (hover to see other rain measurements)
** Current wind speed in m/s (hover to see current wind gust speed)